Flag for Switzerland Weather past 2 weeks in Mendrisio, Ticino, Switzerland

Now
33 °F

Chilly.


Feels Like: 33 °F
Forecast: 36 / 45 °F
Wind: 2 mph from Southwest

Location: Stabio

Current Time: Dec 18, 2014 at 5:13:55 AM

Latest Report: Dec 18, 2014 at 3:00 AM


Visibility: N/A

Pressure: 30.03 "Hg

Humidity: 100%

Dew point: 33 °F

Location of MendrisioLocation

Historic Weather in Mendrisio — Graph

°F

Mendrisio temperature yesterday

Maximum temperature yesterday: 47 °F (at 2:00 PM)
Minimum temperature yesterday: 31 °F (at 5:00 AM)
Average temperature yesterday: 39 °F

Past Weeks' High & Low Weather Summary

 TemperatureHumidityPressure
High111 °F (Dec 8, 4:00 PM)100% (Dec 3, 3:00 AM)30.30 "Hg (Dec 3, 3:00 AM)
Low27 °F (Dec 12, 7:00 AM)9% (Dec 8, 3:00 PM)29.80 "Hg (Dec 8, 8:00 PM)
Average43 °F90%30.06 "Hg
* Reported Dec 3 3:00 AM — Dec 18 3:00 AM, Mendrisio, Weather by CustomWeather, © 2014

Note: Actual official high and low records may vary slightly from our data, if they occured in-between our weather recording intervals... More about our weather records

Advertising

Mendrisio weather history for previous 24 hours

 ConditionsComfort  
Time TempWeatherWind HumidityBarometerVisibility
3:00 AM
Dec 18
33 °FChilly.2 mph100%30.03 "HgN/A
2:00 AM33 °FChilly.2 mph100%30.02 "HgN/A
1:00 AM35 °FChilly.2 mph95%30.00 "HgN/A
12:00 AM35 °FChilly.1 mph100%30.01 "HgN/A
11:00 PM
Dec 17
35 °FChilly.1 mph97%30.01 "HgN/A
10:00 PM36 °FChilly.2 mph99%30.01 "HgN/A
9:00 PM37 °FChilly.2 mph100%29.99 "HgN/A
8:00 PM40 °FQuite cool.1 mph100%29.98 "HgN/A
7:00 PM42 °FQuite cool.No wind93%29.96 "HgN/A
6:00 PM42 °FQuite cool.No wind100%29.95 "HgN/A
5:00 PM43 °FQuite cool.No wind100%29.93 "HgN/A
4:00 PM44 °FQuite cool.No wind94%29.92 "HgN/A
3:00 PM46 °FCool.No wind86%29.91 "HgN/A
2:00 PM47 °FCool.2 mph78%29.93 "HgN/A
1:00 PM45 °FCool.No wind92%29.94 "HgN/A
12:00 PM44 °FQuite cool.1 mph89%29.96 "HgN/A
11:00 AM43 °FQuite cool.No wind97%29.99 "HgN/A
10:00 AM38 °FChilly.1 mph98%29.99 "HgN/A
9:00 AM35 °FChilly.3 mph100%29.98 "HgN/A
8:00 AM34 °FChilly.1 mph99%29.96 "HgN/A
7:00 AM34 °FChilly.1 mph95%29.93 "HgN/A
6:00 AM34 °FChilly.2 mph99%29.91 "HgN/A
5:00 AM31 °FChilly.2 mph99%29.90 "HgN/A
Weather by CustomWeather, © 2014

See weather overviewHow to use our weather pages